STARLINK-30448, 57928

Orbit data source: Space-Track

STARLINK-30448, 57928 is a payload satellite owned by SpaceX/Seattle (US) in LEO that was launched on Sun, 24 Sep 2023 UTC via an FALCON 9 launch vehicle from the Air Force Eastern Test Range (AFETR). Payload-class satellites include a variety of spacecraft equipped with specific instruments for various scientific and technological missions. These include communications satellites like Starlink; space stations such as the ISS; scientific satellites like the Hubble; Earth observation satellites from companies like Planet Labs, Umbra, and HawkEye 360; GPS; miniature CubeSats for education and research; and military/defense satellites.

Loading next visibility...
Identifier
57928, 2023-147R
Orbit
LEO
Country
Flag of USUS
Related business
Manufacturer
SpaceX/Seattle
Mission
Operational Commercial Communications
Bus & Motor
STARLINK V2M, Unknown motor
Mass
730 kg wet, ~700 kg dry
Launch date (UTC)
2023-09-24 (3 years ago)
Launch vehicle
FALCON 9
Launch site
Air Force Eastern Test Range (AFETR)
Object type
Payload
Rocket body
Debris
Shape & HBR
Box + 2 Pan, 17.7 m
Radar Cross Section
33.884 m², Large (>1 m²)

Expand to show TLE details & history
Last TLE update: 2 days ago

TLE from 2 days ago
0 STARLINK-30448
1 57928U 23147R   26171.19064483  .00001087  00000-0  49027-4 0  9992
2 57928  43.0021 109.7852 0000807 269.1194  90.9565 15.27581967152230
Epoch: 2026-06-20T04:34Z
TLE epoch observation values (Epoch: 2026-06-20T04:34:31.713Z)
Latitude
-0.00003°
Longitude
132.74422°
Altitude
482.828 km
Speed
7.626 km/s
True Right ascension
07h 19m 08s
True Declination
0° 00' 00"
Sunlit
Object was in daylight at epoch
Visualization orbit readout
Latitude
Unknown
Longitude
Unknown
Altitude
Unknown
Speed
Unknown
Apparent Right ascension
Unknown
Apparent Declination
Unknown
Sunlit
N/A
Visualization observer readout
Local Sidereal Time
21:29:36
Azimuth
Unknown
Elevation
Unknown
Doppler factor
Unknown
Orbital elements
Apogee altitude
485.542 km
Perigee altitude
484.434 km
Semi-major axis
6,863.125 km
Eccentricity
0.00008
Inclination
43.0021°
RAAN
109.7852°
Arg. of periapsis
269.1194°
True anomaly
90.96575°
Mean anomaly
90.9565°
Eccentric anomaly
90.96112°
Mean motion
3.81734 °/min
Orbital period
94.31 mins
BSTAR
0.000049027
Loading maneuver chart data...
Computing Atmospheric mass density...

Documentation

Showing up to 5 results
|